Regional Weather Roundup
Issued by NWS

Home | Current Version | Previous Version | Text Only | Print | Product List | Glossary On
Versions: 1 2 3 4 5 6 7 8 9 10 11 12 13 14 15 16 17 18 19 20 21 22 23 24 25 26 27 28 29 30 31 32 33 34 35 36 37 38 39 40 41 42 43 44 45 46 47 48 49 50
771
ASUS43 KMKX 241500
RWRWI

WISCONSIN REGIONAL WEATHER ROUNDUP
NATIONAL WEATHER SERVICE MILWAUKEE/SULLIVAN WI
900 AM CST SAT FEB 24 2018

NOTE: "FAIR" INDICATES FEW OR NO CLOUDS BELOW 12,000 FEET WITH NO
SIGNIFICANT WEATHER AND/OR OBSTRUCTIONS TO VISIBILITY.

WIZ001-002-006>008-014>016-023>028-241600-
NORTHWEST WISCONSIN

CITY           SKY/WX    TMP DP  RH WIND       PRES   REMARKS
SUPERIOR ARPT  FAIR       9   6  88 CALM      30.18F
ASHLAND        FAIR      15  14  95 CALM      30.19F FOG
HAYWARD        PTSUNNY   10   8  92 SE7       30.16F FOG     WCI  -1
SIREN          FAIR       3   0  85 CALM      30.18S
CUMBERLAND     SNOW       7   3  85 CALM      30.15F VSB<1/4
RICE LAKE      LGT SNOW  12  10  92 CALM      30.18F VSB 1
CHETEK         LGT SNOW  10   8  92 E3        30.18F VSB 3/4
LADYSMITH      SNOW      11   9  89 CALM      30.18F VSB 1/4
EAU CLAIRE     NOT AVBL
MENOMONIE      CLOUDY    14  12  91 N3        30.16F FOG
NEW RICHMOND   LGT SNOW   5   1  84 CALM      30.15F
OSCEOLA        LGT SNOW   6   3  87 CALM      30.20S VSB 1
$$

WIZ003>005-009-010-017-018-241600-
NORTH CENTRAL WISCONSIN

CITY           SKY/WX    TMP DP  RH WIND       PRES   REMARKS
MANITOWISH WTR LGT SNOW  11  11  99 CALM      30.15S
ARBOR VITAE    CLOUDY    17  14  90 CALM      30.15S FOG
WOODRUFF       CLOUDY    17  14  90 CALM      30.15S FOG
RHINELANDER    FOG       13  13 100 CALM      30.15F VSB 1/4
EAGLE RIVER    FOG       16  14  91 S3        30.15S VSB 1/4
LAND O LAKES   CLOUDY    16  14  93 CALM      30.17S FOG
PHILLIPS       CLOUDY     9   8  94 CALM      30.15S FOG
TOMAHAWK       FOG       11   9  90 CALM      30.17F VSB 1/4
MEDFORD        SNOW      10   8  89 CALM      30.14F VSB 1/2
MERRILL        FOG       15  14  93 CALM      30.17F VSB 1/4
$$

WIZ029-030-035-036-043>047-241600-
CENTRAL WISCONSIN

CITY           SKY/WX    TMP DP  RH WIND       PRES   REMARKS
WAUSAU         FAIR      20  17  88 E3        30.15F FOG
MOSINEE        MOSUNNY   19  19 100 NE3       30.16F FOG
MARSHFIELD     FOG       19  17  92 E6        30.13F VSB 1/4 WCI  11
STEVENS POINT  FAIR      19  19 100 CALM      30.17F FOG
WAUPACA        FAIR      29  26  87 CALM      30.20F FOG
WAUTOMA        FAIR      28  23  81 E8        30.18  WCI  20
WISC RAPIDS    FAIR      24  19  81 E6        30.16F HAZE    WCI  17
CAMP DOUGLAS   NOT AVBL
$$

WIZ011>013-019>022-031-037>040-048>050-241600-
NORTHEAST WISCONSIN

CITY           SKY/WX    TMP DP  RH WIND       PRES   REMARKS
ANTIGO         FAIR      12  10  93 CALM      30.17F FOG
SHAWANO        FAIR      29  24  82 CALM      30.20F
OCONTO         FAIR      32  24  71 SE6       30.22F WCI  26
STURGEON BAY   CLOUDY    32  23  69 E8        30.23F WCI  25
GREEN BAY      FAIR      32  22  66 E10       30.22S WCI  24
MANITOWOC      CLOUDY    32  24  72 E12       30.21F WCI  23
APPLETON       MOSUNNY   30  21  69 E10       30.17F WCI  21
CLINTONVILLE   FAIR      28  23  82 NE6       30.20F WCI  21
OSHKOSH        FAIR      30  24  78 E7        30.18F WCI  23
$$

WIZ032>034-041-042-053>061-241600-
SOUTHWEST WISCONSIN

CITY           SKY/WX    TMP DP  RH WIND       PRES   REMARKS
LA CROSSE      FAIR      22  19  89 NW5       30.15F FOG     WCI  16
SPARTA         FAIR      24  22  93 E10       30.16F FOG     WCI  13
VIROQUA        FAIR      25  25  99 E16       30.10F WCI  13
BOSCOBEL       PTSUNNY   30  24  78 E5        30.16S WCI  25
PRAIRIE DU CHI CLOUDY    27  23  83 E5        30.15F WCI  22
PLATTEVILLE    PTSUNNY   29  28  96 E13       30.14S WCI  19
$$

WIZ056-057-062-063-064-067-068-241600-
SOUTH CENTRAL WISCONSIN

CITY           SKY/WX    TMP DP  RH WIND       PRES   REMARKS
REEDSBURG      FAIR      28  24  85 E7        30.15F WCI  21
BARABOO/DELLS  FAIR      26  24  91 E7        30.15F WCI  19
LONE ROCK      NOT AVBL
MINERAL POINT  CLOUDY    30  30 100 E13       30.12S WCI  20
MADISON        PTSUNNY   29  24  82 E10       30.16F WCI  20
MIDDLETON      PTSUNNY   31  26  82 SE13      30.16F WCI  21
WATERTOWN      CLOUDY    30  27  88 E7        30.16F WCI  23
MONROE         CLOUDY    30  27  86 E12G20    30.13F WCI  21
JANESVILLE     CLOUDY    34  32  93 E12       30.15F WCI  25
$$

WIZ051-052-058>065-066-070>072-241600-
SOUTHEAST WISCONSIN

CITY           SKY/WX    TMP DP  RH WIND       PRES   REMARKS
MILWAUKEE      CLOUDY    34  28  79 E12       30.19S WCI  25
WAUKESHA       CLOUDY    30  25  80 E13       30.19S WCI  20
MILWAUKEE/TIMM CLOUDY    34  23  64 E13       30.21S WCI  25
RACINE         CLOUDY    34  28  79 E10       30.21S WCI  26
BURLINGTON     CLOUDY    32  27  81 E9        30.18S WCI  24
KENOSHA        CLOUDY    34  28  79 E15       30.19R WCI  24
FOND DU LAC    FAIR      32  23  69 E9        30.19F WCI  24
SHEBOYGAN      CLOUDY    32  26  78 E8        30.21R WCI  25
WEST BEND      CLOUDY    32  28  86 E10       30.19F WCI  24
JUNEAU         CLOUDY    28  24  82 NE8       30.19S WCI  20
$$

LSZ147-162-241600-
LAKE SUPERIOR

STATION/POSITION TIME  TEMP    WIND        PRES    WAVE
                       AIR SEA DIR/SP/G            HT/PER
                 (UTC) (F)     (DEG/KT/KT) (MB)    (FT/S)
DEVILS ISLAND    1400   17     220/  8/  9 1024.3R
SAXON HARBOR     1430   15     190/  2/  4 1022.4S
$$

LMZ867-665-643>646-241600-
LAKE MICHIGAN

STATION/POSITION TIME  TEMP    WIND        PRES    WAVE
                       AIR SEA DIR/SP/G            HT/PER
                 (UTC) (F)     (DEG/KT/KT) (MB)    (FT/S)
NORTHPORT PIER   1440   33                 1023.7S
KEWAUNEE LAKESHO 1424   32     110/  5/ 12 1023.0
SHEBOYGAN LAKESH 1400   33      60/ 13/ 14 1023.9F
PORT WASHINGTON  1440   34      90/ 12/ 15 1023.7F
KENOSHA   LAKESH 1400   34      80/ 11/ 12 1022.4
$$

TC  - TEMPERATURE IN CELSIUS
VSB - VISIBILITY IN STATUTE MILES
WCI - WIND CHILL INDEX
HX  - HEAT INDEX





USA.gov is the U.S. government's official web portal to all federal, state and local government web resources and services.